Regional Weather Roundup
Issued by NWS

Home | Current Version | Previous Version | Text Only | Print | Product List | Glossary On
Versions: 1 2 3 4 5 6 7 8 9 10 11 12 13 14 15 16 17 18 19 20 21 22 23 24 25 26 27 28 29 30 31 32 33 34 35 36 37 38 39 40 41 42 43 44 45 46 47 48 49 50
000
ASUS44 KJAN 300103
RWRMS

MISSISSIPPI HOURLY WEATHER ROUNDUP
NATIONAL WEATHER SERVICE JACKSON MS
800 PM CDT FRI MAY 29 2015

NOTE: "FAIR: INDICATES FEW OR NO CLOUDS BELOW 12,000 FEET WITH NO
SIGNIFICANT WEATHER AND/OR OBSTRUCTIONS TO VISIBILITY.

MSZ001>002-007>008-010>013-018>021-025>028-034>036-300200-
NORTHWEST MISSISSIPPI

CITY           SKY/WX    TMP DP  RH WIND       PRES   REMARKS
CLARKSDALE     FAIR      79  73  83 CALM      29.99F
CLEVELAND      FAIR      81  76  85 E8        29.97S
GREENWOOD      PTCLDY    78  68  71 SE14      30.01R
GREENVILLE     CLEAR     81  72  74 SE9       29.96R
OLIVE BRANCH   MOCLDY    73  73 100 S6        30.01S
OXFORD         FAIR      73  66  78 SE8       30.03F
TUNICA         MOCLDY    77  70  78 SE7       30.00S
$$

MSZ003>006-009-014>017-022>024-029>033-037>039-300200-
NORTHEAST MISSISSIPPI

CITY           SKY/WX    TMP DP  RH WIND       PRES   REMARKS
COLUMBUS AFB   CLEAR     76  70  81 S2        30.04S
CORINTH        FAIR      77  68  73 CALM      30.03S
GOLDN TRIANGLE PTCLDY    79  68  69 S6        30.04S
STARKVILLE     FAIR      75  68  78 CALM      30.05R
TUPELO         MOCLDY    78  67  68 S6        30.03S
$$

MSZ040-058-300200-
CENTRAL MISSISSIPPI

CITY           SKY/WX    TMP DP  RH WIND       PRES   REMARKS
JACKSON INTL   PTCLDY    79  69  71 S13       30.02R
JACKSON HAWKNS PTCLDY    79  68  69 SE9       30.02S
MERIDIAN KEY   LGT RAIN  72  67  84 CALM      30.06F
MERIDIAN NAS   LGT RAIN  74  67  78 SW8G16    30.08R
RAYMOND        FAIR      79  73  83 SE5G13    30.01R
VICKSBURG      MOCLDY    74  69  85 SE8       29.99R
$$

MSZ059>079-300200-
SOUTH MISSISSIPPI

CITY           SKY/WX    TMP DP  RH WIND       PRES   REMARKS
BROOKHAVEN       N/A     75  73  94 SE6       30.05R
HATTIESBURG    PTCLDY    76  73  91 SE3       30.05S
MCCOMB         MOCLDY    76  70  82 S8        30.04R
NATCHEZ        MOCLDY    73  70  88 S7        30.01S
PINE BELT      PTCLDY    75  70  83 SE5       30.06S
$$

MSZ080>082-300200-
COASTAL MISSISSIPPI

CITY           SKY/WX    TMP DP  RH WIND       PRES   REMARKS
BILOXI         CLEAR     80  69  68 S6        30.05S
PASCAGOULA     CLEAR     77  72  84 SE5       30.06S
GULFPORT       PTCLDY    81  69  67 S10       30.05R
$$


USA.gov is the U.S. government's official web portal to all federal, state and local government web resources and services.